, AK

(GMT )
Portage Glacier

Weather History for PATO - October, 2019

Change the Weather History Date:

Sunday, October 13, 2019

  Actual Average (WUND) Record (WUND)
Temperature  
Mean Temperature 32 °F -  
Max Temperature 42 °F - - (-1)
Min Temperature 21 °F - - (-1)
Degree Days  
Heating Degree Days 34    
Moisture  
Dew Point 26 °F    
Average Humidity 86    
Maximum Humidity 100    
Minimum Humidity 55    
Precipitation  
Precipitation 0.00 in - - ()
Sea Level Pressure  
Sea Level Pressure 30.03 in    
Wind  
Wind Speed 1 mph (ESE)    
Max Wind Speed 8 mph    
Max Gust Speed -    
Visibility 10 miles    
Events      
Averages and records for this station are not official NWS values.
T = Trace of Precipitation, MM = Missing Value Source: NWS Daily Summary

Daily Weather History Graph

Daily Weather History Graph

Search for Another Location

Airport or City:

Astronomy

Oct. 13, 2019 Rise Set
Actual Time 8:31 AM AKDT 6:50 PM AKDT
Civil Twilight 7:48 AM AKDT 7:33 PM AKDT
Nautical Twilight 6:59 AM AKDT 8:22 PM AKDT
Astronomical Twilight 6:08 AM AKDT 9:12 PM AKDT
Moon 7:28 PM AKDT (10/13) 7:55 AM AKDT (10/13)
Length of Visible Light 11h 45m
Length of Day
10h 18m
Full, 100% of the Moon is Illuminated
Oct 13
Full
Oct 13
Full
Oct 21
Last Quarter
Oct 27
New
Nov 4
First Quarter

Hourly Weather History & Observations

Time (AKDT) Temp. Windchill Dew Point Humidity Pressure Visibility Wind Dir Wind Speed Gust Speed Precip Events Conditions
12:53 AM 26.1 °F 21.9 °F 25.0 °F 96% 30.11 in 10.0 mi West 3.5 mph - N/A   Clear
1:53 AM 25.0 °F - 24.1 °F 96% 30.11 in 10.0 mi Calm Calm - N/A   Clear
2:53 AM 25.0 °F - 24.1 °F 96% 30.11 in 10.0 mi Calm Calm - N/A   Clear
3:53 AM 24.1 °F - 21.9 °F 91% 30.09 in 10.0 mi Calm Calm - N/A   Clear
4:53 AM 23.0 °F - 23.0 °F 100% 30.09 in 10.0 mi Calm Calm - N/A   Clear
5:53 AM 23.0 °F - 21.9 °F 96% 30.08 in 10.0 mi Calm Calm - N/A   Clear
6:53 AM 21.9 °F - 21.9 °F 100% 30.08 in 10.0 mi Calm Calm - N/A   Clear
7:53 AM 21.9 °F - 21.0 °F 96% 30.06 in 10.0 mi Calm Calm - N/A   Clear
8:53 AM 21.0 °F - 21.0 °F 100% 30.07 in 10.0 mi Calm Calm - N/A   Clear
9:53 AM 24.1 °F - 23.0 °F 96% 30.07 in 10.0 mi Calm Calm - N/A   Clear
10:53 AM 28.9 °F - 28.9 °F 100% 30.06 in 10.0 mi Calm Calm - N/A   Clear
11:53 AM 33.1 °F 30.0 °F 30.9 °F 92% 30.05 in 10.0 mi ESE 3.5 mph - N/A   Clear
12:53 PM 36.0 °F - 30.9 °F 82% 30.04 in 10.0 mi Calm Calm - N/A   Clear
1:53 PM 39.0 °F - 30.0 °F 70% 30.02 in 10.0 mi Calm Calm - N/A   Clear
2:53 PM 39.0 °F - 30.0 °F 70% 30.00 in 10.0 mi Calm Calm - N/A   Clear
3:53 PM 37.9 °F 34.4 °F 28.0 °F 68% 29.99 in 10.0 mi SE 4.6 mph - N/A   Clear
4:53 PM 42.1 °F 38.4 °F 27.0 °F 55% 29.97 in 10.0 mi SE 5.8 mph - N/A   Clear
5:53 PM 39.9 °F 36.7 °F 27.0 °F 60% 29.97 in 10.0 mi SE 4.6 mph - N/A   Clear
6:53 PM 39.9 °F 34.5 °F 28.0 °F 63% 29.96 in 10.0 mi East 8.1 mph - N/A   Clear
7:53 PM 37.0 °F 34.5 °F 28.0 °F 70% 29.96 in 10.0 mi East 3.5 mph - N/A   Clear
8:53 PM 28.9 °F - 27.0 °F 92% 29.96 in 10.0 mi Calm Calm - N/A   Clear
9:53 PM 27.0 °F - 26.1 °F 96% 29.96 in 10.0 mi Calm Calm - N/A   Clear
10:53 PM 26.1 °F - 25.0 °F 96% 29.95 in 10.0 mi Calm Calm - N/A   Clear